Printer-friendly version

IAU Minor Planet Center

Minor Planet Center

MPEC 2002-P09 : 2002 PN

The following Minor Planet Electronic Circular may be linked-to from your own Web pages, but must not otherwise be redistributed electronically.


Read MPEC 2002-P08 Read MPEC 2002-P10


M.P.E.C. 2002-P09                                Issued 2002 Aug. 3, 20:26 UT

     The Minor Planet Electronic Circulars contain information on unusual
         minor planets and routine data on comets.  They are published
   on behalf of Commission 20 of the International Astronomical Union by the
          Minor Planet Center, Smithsonian Astrophysical Observatory,
                          Cambridge, MA 02138, U.S.A.

             Prepared using the Tamkin Foundation Computer Network

                              MPC@CFA.HARVARD.EDU
          URL http://cfa-www.harvard.edu/iau/mpc.html  ISSN 1523-6714

                                    2002 PN

Observations:
     K02P00N* C2002 08 02.36352 21 25 24.95 -14 59 36.8          17.4 R      G78
     K02P00N  C2002 08 02.36943 21 25 18.65 -14 56 43.8          17.3 R      G78
     K02P00N  C2002 08 02.37507 21 25 12.73 -14 53 57.1          17.2 R      G78
     K02P00N tC2002 08 02.67034 21 20 39.36 -12 15 48.2          16.1 R      474
     K02P00N tC2002 08 02.67176 21 20 37.88 -12 15 02.9          16.2 R      474
     K02P00N  C2002 08 02.67350 21 20 36.14 -12 14 10.1          15.9 R      474
     K02P00N  C2002 08 02.67465 21 20 34.96 -12 13 34.4          16.0 R      474
     K02P00N  C2002 08 02.67789 21 20 31.72 -12 11 54.9          16.0 R      474
     K02P00N  C2002 08 02.68507 21 20 24.51 -12 08 12.8          16.3 R      474
     K02P00N  C2002 08 02.68669 21 20 22.93 -12 07 22.8          16.7 R      474
     K02P00N  C2002 08 02.68854 21 20 21.03 -12 06 25.4          16.7 R      474
     K02P00N  C2002 08 02.68935 21 20 20.24 -12 06 00.2          16.4 R      474
     K02P00N  C2002 08 02.72639 21 19 43.90 -11 46 50.7          16.2 R      474
     K02P00N  C2002 08 02.72774 21 19 42.66 -11 46 09.7          16.4 R      474
     K02P00N  C2002 08 02.84522 21 18 40.31 -10 57 46.0          16.4 R      587
     K02P00N  C2002 08 02.84600 21 18 39.59 -10 57 21.6          16.2 R      587
     K02P00N  C2002 08 02.84677 21 18 38.81 -10 56 58.1          16.2 R      587
     K02P00N  C2002 08 02.84755 21 18 38.01 -10 56 34.6          16.3 R      587
     K02P00N  C2002 08 02.84832 21 18 37.24 -10 56 10.7          16.5 R      587
     K02P00N  C2002 08 02.89433 21 17 50.31 -10 32 19.5          16.4 R      599
     K02P00N  C2002 08 02.89736 21 17 47.15 -10 30 45.4          16.3 R      599
     K02P00N  C2002 08 02.94728 21 16 53.30 -10 05 27.4                      557
     K02P00N  C2002 08 02.94972 21 16 50.76 -10 04 11.5                      557
     K02P00N  C2002 08 02.95086 21 16 51.96 -10 03 34.0                      611
     K02P00N  C2002 08 02.95167 21 16 51.10 -10 03 09.4                      611
     K02P00N  C2002 08 02.95431 21 16 45.97 -10 01 47.7                      557
     K02P00N  C2002 08 02.95800 21 16 42.08 -09 59 52.2                      557
     K02P00N  C2002 08 02.95927 21 16 40.76 -09 59 12.4          17.3 V      557
     K02P00N  C2002 08 02.96690 21 16 35.16 -09 55 11.8                      611
     K02P00N  C2002 08 02.96756 21 16 34.50 -09 54 50.9                      611
     K02P00N  C2002 08 02.96829 21 16 33.96 -09 54 26.6                      611
     K02P00N  C2002 08 03.04235 21 15 42.39 -09 06 16.9          17.8 R      859
     K02P00N  C2002 08 03.04292 21 15 41.63 -09 05 57.4          17.1 R      859
     K02P00N  C2002 08 03.04347 21 15 40.93 -09 05 39.5          18.6 R      859
     K02P00N  C2002 08 03.04406 21 15 40.25 -09 05 20.0          17.7 R      859
     K02P00N  C2002 08 03.05421 21 15 00.68 -09 08 33.5          16.2 R      599
     K02P00N  C2002 08 03.05719 21 14 57.54 -09 06 58.1          16.2 R      599
     K02P00N  C2002 08 03.05997 21 14 54.59 -09 05 28.7          16.3 R      599
     K02P00N  C2002 08 03.06076 21 14 53.77 -09 05 03.7          16.3 R      599
     K02P00N  C2002 08 03.06341 21 14 51.00 -09 03 40.1          16.3 R      599
     K02P00N  C2002 08 03.15413 21 13 45.42 -08 04 58.1          18.1 R      844
     K02P00N  C2002 08 03.15645 21 13 42.73 -08 03 45.2          17.7 R      844
     K02P00N  C2002 08 03.15797 21 13 41.08 -08 02 55.5          17.8 R      844
     K02P00N  C2002 08 03.15987 21 13 38.94 -08 01 53.3          17.8 R      844
     K02P00N  C2002 08 03.17890 21 13 35.87 -08 01 48.3          15.6 R      734
     K02P00N  C2002 08 03.17975 21 13 35.01 -08 01 18.1          15.7 R      734
     K02P00N  C2002 08 03.18028 21 13 34.31 -08 01 01.3          15.5 R      734
     K02P00N  C2002 08 03.23017 21 12 50.88 -07 33 38.7          16.5 V      G78
     K02P00N  C2002 08 03.23120 21 12 49.86 -07 33 04.3          16.4 V      G78
     K02P00N  C2002 08 03.23368 21 12 47.38 -07 31 48.4          16.2 V      G78
     K02P00N  C2002 08 03.23419 21 12 46.80 -07 31 30.5          16.5 V      G78
     K02P00N  C2002 08 03.23463 21 12 46.24 -07 31 15.0          16.0 V      G78
     K02P00N  C2002 08 03.23566 21 12 45.17 -07 30 42.7          16.6 V      G78
     K02P00N  C2002 08 03.23666 21 12 44.16 -07 30 10.5          16.6 V      G78
     K02P00N  C2002 08 03.23855 21 12 42.04 -07 29 09.1          16.3 V      G78
     K02P00N  C2002 08 03.23955 21 12 41.08 -07 28 38.5          16.5 V      G78
     K02P00N  C2002 08 03.40602 21 09 38.59 -05 58 40.6          17.3 V      G78
     K02P00N  C2002 08 03.40711 21 09 37.30 -05 58 04.7          17.2 V      G78
     K02P00N  C2002 08 03.40829 21 09 36.06 -05 57 25.7          17.2 V      G78
     K02P00N  C2002 08 03.40933 21 09 35.03 -05 56 52.4          17.6 V      G78
     K02P00N  C2002 08 03.41052 21 09 33.62 -05 56 12.1          17.4 V      G78
     K02P00N  C2002 08 03.41157 21 09 32.44 -05 55 38.2          17.2 V      G78
     K02P00N  C2002 08 03.43293 21 09 09.26 -05 43 54.3          16.9 V      G78
     K02P00N  C2002 08 03.43389 21 09 08.22 -05 43 23.3          16.9 V      G78
     K02P00N  C2002 08 03.43483 21 09 07.25 -05 42 53.0          17.2 V      G78
     K02P00N  C2002 08 03.43579 21 09 06.25 -05 42 21.7          17.1 V      G78
     K02P00N  C2002 08 03.43671 21 09 05.36 -05 41 51.1          17.0 V      G78
     K02P00N  C2002 08 03.43769 21 09 04.20 -05 41 19.7          17.0 V      G78

Observer details:
474 Mount John Observatory, Lake Tekapo.  Observers A. C. Gilmore,
    P. M. Kilmartin.  Measurer A. C. Gilmore.  0.6-m f/6.4 reflector.
557 Ondrejov.  Observer L. Sarounova.  0.65-m f/3.6 reflector + CCD.
587 Sormano.  Observer F. Manca.  0.5-m reflector + CCD.
599 Campo Imperatore-CINEOS.  Observer A. Boattini.  Measurers A. Boattini,
    F. Bernardi, A. Di Paola, M. Tombelli.  0.60-m f/3 Schmidt + CCD.
611 Starkenburg.  Observers M. Busch, R. Kresken.  0.45-m f/4.4
    reflector + CCD.
734 Farpoint Observatory.  Observer G. Hug.  0.30-m Schmidt-Cassegrain + CCD.
844 Los Molinos.  Observer F. Artigue.  0.35-m f/6.4 reflector + CCD.
859 Wykrota Observatory-CEAMIG.  Observers C. Jacques, J. Diniz.
    0.3-m f/3.3 Schmidt-Cassegrain + CCD.
G78 Desert Wanderer Observatory.  Observer W. K. Y. Yeung.  0.45-m reflector
    + CCD.  Long. and parallax 244.3127, 0.84158, +0.53832.

Orbital elements:
2002 PN
Epoch 2002 May 6.0 TT = JDT 2452400.5                   MPC
M 173.83888              (2000.0)            P               Q
n   0.96395628     Peri.  108.35547     +0.51455156     -0.84872235
a   1.0149185      Node   310.05346     +0.71412412     +0.50298707
e   0.0670683      Incl.    9.17834     +0.47461924     +0.16332295
P   1.02           H   25.2           G   0.15           U   6
Residuals in seconds of arc
020802 G78  0.4+  0.1-    020802 611  0.1-  0.6-    020803 734 (3.1-  2.8+)
020802 G78  0.1+  0.9-    020802 611  0.3-  1.4-    020803 G78 (2.4-  0.5-)
020802 G78  1.0+  0.4-    020802 557  0.1+  0.4+    020803 G78  1.3-  1.0+
020802 474  0.7+  0.2-    020802 557  0.4-  0.2+    020803 G78 (0.9+  2.5-)
020802 474  0.0   1.3+    020802 557  0.3-  0.2+    020803 G78  0.3+  0.9-
020802 474  0.2+  0.5+    020802 611  1.2-  0.7-    020803 G78  1.0-  0.5+
020802 474  0.2-  0.7+    020802 611  0.7-  0.5-    020803 G78  0.7-  0.1-
020802 474  0.0   0.2+    020802 611 (2.6+  0.9+)   020803 G78  0.1+  0.1+
020802 474  0.3-  0.4+    020803 859 (2.2+  2.5-)   020803 G78  1.5-  1.0+
020802 474  0.2+  0.3+    020803 859  0.1+  0.9-    020803 G78  0.1+  0.4-
020802 474  0.7-  0.5+    020803 859  1.5-  0.3-    020803 G78  1.5+  0.7-
020802 474  0.4-  0.7+    020803 859 (2.2-  0.7+)   020803 G78  0.0   0.6-
020802 474  0.8-  1.0+    020803 599  1.1+  1.0-    020803 G78  0.7+  0.3-
020802 474  0.1+  0.0     020803 599  1.1+  0.7-    020803 G78 (2.3+  1.1-)
020802 587  0.5-  0.2+    020803 599  0.8+  0.1+    020803 G78  0.6+  0.1+
020802 587  0.2+  0.7+    020803 599  1.0+  0.1-    020803 G78  0.1+  0.4-
020802 587  0.1-  0.6+    020803 599  1.3+  1.1-    020803 G78  0.4-  1.7+
020802 587  0.6-  0.2+    020803 844 (3.5+  4.1-)   020803 G78  0.4-  1.2+
020802 587  0.7-  0.4+    020803 844 (1.2+  5.4-)   020803 G78  0.2+  0.6+
020802 599  1.1+  1.8-    020803 844 (1.4+  4.4-)   020803 G78  0.7+  0.3+
020802 599  0.9+  1.5-    020803 844 (0.5+  3.0-)   020803 G78 (2.2+  0.6+)
020802 557  0.0   0.8+    020803 734  1.4-  0.2-    020803 G78  0.6+  0.3-
020802 557  0.1+  0.3+    020803 734 (0.9-  2.9+)

